Flight Track Log - Related Links

Times and Time Zones

All times are in EDT time to prevent confusion due to time zone crossing. See the N401PL flight status page for this flight to view local times or setup timezone preferences in your user account.

Time Position Orientation Groundspeed Altitude Reporting Facility
EDT Latitude Longitude Course Direction KTS MPH feet Rate Location/Type
Thu 04:48:10 PM 38.5833 -92.0567 92° East 132 152 3,100  Level Kansas City Center
Thu 04:49:12 PM 38.5747 -92.0103 103° East 138 159 4,200 968 Climbing Kansas City Center
Thu 04:50:14 PM 38.5517 -91.9575 119° Southeast 140 161 5,100 774 Climbing Kansas City Center
Thu 04:51:16 PM 38.5328 -91.9100 117° Southeast 145 167 5,800 677 Climbing Kansas City Center
Thu 04:52:00 PM 38.5833 -91.8013 90° East  Level FlightAware Approximate
Thu 04:52:18 PM 38.5411 -91.8542 79° East 154 177 6,500  Level Kansas City Center
Thu 04:53:00 PM 38.5823 -91.7432 92° East  Level FlightAware Approximate
Thu 04:53:20 PM 38.5439 -91.8003 86° East 153 176 7,000  Level Kansas City Center
Thu 04:54:23 PM 38.5478 -91.7406 85° East 158 182 7,000  Level Kansas City Center
Thu 04:55:25 PM 38.5525 -91.6756 85° East 170 196 7,000  Level Kansas City Center
Thu 04:56:27 PM 38.5561 -91.6083 86° East 180 207 7,000  Level Kansas City Center
Thu 04:57:29 PM 38.5600 -91.5256 87° East 191 220 7,000  Level Kansas City Center
Thu 04:58:31 PM 38.5644 -91.4586 85° East 189 217 7,000  Level Kansas City Center
Thu 04:59:33 PM 38.5689 -91.3917 85° East 189 217 7,000  Level Kansas City Center
Thu 05:00:35 PM 38.5728 -91.3256 86° East 193 222 7,000  Level Kansas City Center
Thu 05:01:37 PM 38.5769 -91.2589 85° East 191 220 7,000 -194 Level Kansas City Center
Thu 05:02:39 PM 38.5817 -91.1883 85° East 196 226 6,600 -484 Descending Kansas City Center
Thu 05:03:41 PM 38.5800 -91.0994 91° East 206 237 6,000 -387 Descending Kansas City Center
Thu 05:04:43 PM 38.5786 -91.0275 91° East 206 237 5,800 -339 Descending Kansas City Center
Thu 05:05:45 PM 38.5786 -90.9547 90° East 205 236 5,300 -387 Descending Kansas City Center
Thu 05:06:47 PM 38.5781 -90.8825 91° East 205 236 5,000 -145 Descending Kansas City Center
Thu 05:07:49 PM 38.5775 -90.8150 91° East 196 226 5,000 -97 Level Kansas City Center
Thu 05:08:51 PM 38.5772 -90.7464 90° East 194 223 4,800 -387 Descending Kansas City Center
Thu 05:09:53 PM 38.5758 -90.6597 91° East 202 232 4,200 -387 Descending Kansas City Center
Thu 05:10:55 PM 38.5750 -90.5878 91° East 205 236 4,000 -339 Descending Kansas City Center
Thu 05:11:57 PM 38.5747 -90.5181 90° East 201 231 3,500 -484 Descending Kansas City Center
Thu 05:12:59 PM 38.5739 -90.4500 91° East 198 228 3,000 -435 Descending Kansas City Center
Thu 05:14:01 PM 38.5742 -90.3672 90° East 197 227 2,600 -290 Descending Kansas City Center
Thu 05:15:03 PM 38.5861 -90.3028 77° East 192 221 2,400 -387 Descending Kansas City Center
Thu 05:16:05 PM 38.6000 -90.2411 74° East 187 215 1,800 -677 Descending Kansas City Center
Thu 05:17:07 PM 38.5881 -90.1928 108° East 160 184 1,000 -629 Descending Kansas City Center
Thu 05:18:09 PM 38.5703 -90.1564 122° Southeast 137 158 500 -484 Descending Kansas City Center
Thu 05:20:00 PM 38.5667 -90.1500 90° East  Level FlightAware Approximate
Thu 05:27:00 PM 38.5704 -90.1551 90° East  Level Estimated
Thu 05:28:00 PM 38.5667 -90.1500 90° East  Level FlightAware Approximate

Login

Don't have an account? Register now (free) for customized features, flight alerts, and more!